Date String (YYYY-MM-DD hh:mm:ss) UTC,Instrument flags,absolute air pressure of the measurement (hPa),sample flow rate (lpm),inlet stack bypass flow (lpm),air temperature of the measurement (°C),ambient temperature measured by the external sensor (°C),aerosol sample conditioner tube jacket temperature (°C),OPC LED temperature (°C),internal box temperature (°C),relative humidity of the measurement (%),span deviation,mass concentration of particles derived from Lorenz-Mie calculation of OPC scattering (μg/m³),mass concentration of particles derived from Lorenz-Mie calculation of OPC scattering (μg/m³),mass concentration of particles derived from Lorenz-Mie calculation of OPC scattering (μg/m³)
DateTimeUTC,F1_M11,P_M11,Q1_M11,Q2_M11,T1_M11,T2_M11,T3_M11,T4_M11,T5_M11,U1_M11,ZSPAN_M11,X2_M11,X0_M11,X1_M11
2023-06-28 10:00:00,SystemResetWarning,0829.3,5.00,000.00,029.8,027.1,000.0,038.4,031.1,25.3,0000.0,0006.72,0014.83,0005.55
2023-06-28 10:01:00,SystemResetWarning,0829.3,5.00,000.00,029.8,027.4,000.0,038.4,031.1,26.4,0000.0,0006.80,0015.77,0005.61
2023-06-28 10:02:00,SystemResetWarning,0829.3,5.00,000.00,029.8,027.6,000.0,038.4,031.2,26.5,0000.0,0006.82,0015.99,0005.63
2023-06-28 10:03:00,SystemResetWarning,0829.4,5.00,000.00,029.8,027.7,000.0,038.4,031.2,25.5,0000.0,0006.84,0016.32,0005.65
2023-06-28 10:04:00,SystemResetWarning,0829.4,5.00,000.00,029.8,027.9,000.0,038.4,031.2,25.4,0000.0,0006.85,0015.94,0005.67
2023-06-28 10:05:00,SystemResetWarning,0829.4,5.00,000.00,029.8,028.0,000.0,038.4,031.3,25.8,0000.0,0006.89,0015.59,0005.72
2023-06-28 10:06:00,SystemResetWarning,0829.4,5.00,000.00,029.8,028.1,000.0,038.4,031.3,26.8,0000.8,0006.96,0015.10,0005.74
2023-06-28 10:07:00,SystemResetWarning,0829.4,5.00,000.00,029.9,028.1,000.0,038.4,031.3,27.1,0000.8,0007.01,0015.31,0005.74
2023-06-28 10:08:00,SystemResetWarning,0829.4,5.00,000.00,029.9,028.2,000.0,038.4,031.3,26.6,0000.0,0007.08,0015.80,0005.77
2023-06-28 10:09:00,SystemResetWarning,0829.3,5.01,000.00,029.9,028.3,000.0,038.4,031.4,26.6,0000.0,0007.18,0015.94,0005.85
2023-06-28 10:10:00,SystemResetWarning,0829.4,5.00,000.00,029.9,028.3,000.0,038.4,031.4,26.5,0000.0,0007.23,0017.08,0005.88
2023-06-28 10:11:00,SystemResetWarning,0829.4,5.00,000.00,029.9,028.4,000.0,038.4,031.4,26.9,0000.0,0007.28,0017.48,0005.92
2023-06-28 10:12:00,SystemResetWarning,0829.3,5.01,000.00,030.0,028.4,000.0,038.5,031.5,26.5,0000.0,0007.26,0016.19,0005.93
2023-06-28 10:13:00,SystemResetWarning,0829.4,4.99,000.00,030.0,028.5,000.0,038.5,031.5,26.3,0000.0,0007.32,0015.62,0005.98
2023-06-28 10:14:00,SystemResetWarning,0829.4,4.99,000.00,030.0,028.5,000.0,038.5,031.5,25.4,0000.0,0007.41,0015.44,0006.04
2023-06-28 10:15:00,SystemResetWarning,0829.4,5.00,000.00,030.0,028.5,000.0,038.5,031.5,25.9,0000.0,0007.52,0015.46,0006.09
2023-06-28 10:16:00,SystemResetWarning,0829.4,5.00,000.00,030.0,028.6,000.0,038.5,031.5,26.0,0000.0,0007.56,0015.95,0006.11
2023-06-28 10:17:00,SystemResetWarning,0829.4,5.01,000.00,030.1,028.6,000.0,038.5,031.6,25.6,0000.0,0007.51,0015.71,0006.10
2023-06-28 10:18:00,SystemResetWarning,0829.4,5.00,000.00,030.1,028.6,000.0,038.6,031.6,25.8,0000.0,0007.46,0015.30,0006.10
2023-06-28 10:19:00,SystemResetWarning,0829.4,4.98,000.00,030.1,027.6,000.0,038.5,031.7,25.1,0000.0,0007.42,0015.11,0006.07
2023-06-28 10:20:00,SystemResetWarning,0829.4,5.01,000.00,030.1,025.4,000.0,038.5,031.6,25.6,0000.0,0007.38,0015.20,0006.04
2023-06-28 10:21:00,SystemResetWarning,0829.3,5.02,000.00,030.1,025.0,000.0,038.4,031.5,27.3,0000.0,0007.33,0014.05,0006.03
2023-06-28 10:22:00,SystemResetWarning,0829.3,5.00,000.00,030.0,025.2,000.0,038.4,031.2,28.1,0000.0,0007.31,0013.75,0006.04
2023-06-28 10:23:00,SystemResetWarning,0829.3,5.00,000.00,029.9,025.7,000.0,038.4,031.1,27.8,0000.0,0007.34,0014.20,0006.03
2023-06-28 10:24:00,SystemResetWarning,0829.3,4.99,000.00,029.8,026.1,000.0,038.4,031.1,26.4,0000.0,0007.36,0015.06,0006.01
2023-06-28 10:25:00,SystemResetWarning,0829.3,4.98,000.00,029.8,026.5,000.0,038.4,031.1,26.3,0000.0,0007.28,0015.20,0005.98
2023-06-28 10:26:00,SystemResetWarning,0829.4,5.01,000.00,029.8,026.8,000.0,038.4,031.1,27.0,0000.0,0007.24,0016.51,0005.98
2023-06-28 10:27:00,SystemResetWarning,0829.3,5.01,000.00,029.8,027.1,000.0,038.4,031.1,27.6,0000.0,0007.27,0016.56,0006.02
2023-06-28 10:28:00,SystemResetWarning,0829.3,5.00,000.00,029.8,027.4,000.0,038.4,031.2,27.8,0000.0,0007.37,0016.86,0006.09
2023-06-28 10:29:00,SystemResetWarning,0829.3,5.00,000.00,029.8,027.6,000.0,038.4,031.2,27.7,0000.0,0007.41,0017.20,0006.15
2023-06-28 10:30:00,SystemResetWarning,0829.4,5.00,000.00,029.8,027.8,000.0,038.4,031.2,27.4,0000.0,0007.43,0017.15,0006.19
2023-06-28 10:31:00,SystemResetWarning,0829.3,5.00,000.00,029.8,027.9,000.0,038.4,031.2,27.7,0000.0,0007.47,0017.66,0006.20
2023-06-28 10:32:00,SystemResetWarning,0829.4,5.00,000.00,029.8,028.0,000.0,038.4,031.3,28.0,0000.0,0007.51,0017.93,0006.24
2023-06-28 10:33:00,SystemResetWarning,0829.4,5.00,000.00,029.8,028.1,000.0,038.4,031.3,28.0,0000.0,0007.56,0018.06,0006.26
2023-06-28 10:34:00,SystemResetWarning,0829.4,5.00,000.00,029.8,028.2,000.0,038.4,031.3,27.4,0000.0,0007.60,0018.58,0006.32
2023-06-28 10:35:00,SystemResetWarning,0829.5,5.00,000.00,029.9,028.3,000.0,038.4,031.4,26.9,0000.0,0007.60,0017.75,0006.36
2023-06-28 10:36:00,SystemResetWarning,0829.4,5.00,000.00,029.9,028.3,000.0,038.4,031.4,26.5,0000.0,0007.68,0017.71,0006.40
2023-06-28 10:37:00,SystemResetWarning,0829.4,5.01,000.00,029.9,028.4,000.0,038.4,031.4,26.8,0000.0,0007.73,0016.56,0006.44
2023-06-28 10:38:00,SystemResetWarning,0829.4,5.00,000.00,029.9,028.4,000.0,038.4,031.5,26.9,0000.0,0007.78,0016.11,0006.44
2023-06-28 10:39:00,SystemResetWarning,0829.4,5.00,000.00,030.0,028.5,000.0,038.5,031.5,26.8,0001.2,0007.74,0015.77,0006.42
2023-06-28 10:40:00,SystemResetWarning,0829.5,5.00,000.00,030.0,028.5,000.0,038.5,031.5,27.4,0002.8,0007.75,0016.38,0006.38
2023-06-28 10:41:00,SystemResetWarning,0829.4,5.00,000.00,030.0,028.5,000.0,038.5,031.5,27.9,0003.3,0007.78,0017.29,0006.37
2023-06-28 10:42:00,SystemResetWarning,0829.4,5.00,000.00,030.0,028.6,000.0,038.5,031.5,27.5,0002.3,0007.79,0017.05,0006.37
2023-06-28 10:43:00,SystemResetWarning,0829.4,5.00,000.00,030.1,028.6,000.0,038.5,031.6,27.5,0000.0,0007.82,0018.08,0006.37
2023-06-28 10:44:00,SystemResetWarning,0829.4,5.00,000.00,030.1,028.6,000.0,038.5,031.6,27.8,0000.0,0007.78,0018.13,0006.35
2023-06-28 10:45:00,SystemResetWarning,0829.4,5.00,000.00,030.1,028.7,000.0,038.6,031.6,28.2,0000.8,0007.74,0017.40,0006.31
2023-06-28 10:46:00,SystemResetWarning,0829.5,5.00,000.00,030.1,028.7,000.0,038.6,031.6,27.3,0002.2,0007.74,0018.49,0006.28
2023-06-28 10:47:00,SystemResetWarning,0829.5,4.98,000.00,030.1,027.0,000.0,038.5,031.7,28.2,0000.0,0007.77,0019.82,0006.28
2023-06-28 10:48:00,SystemResetWarning,0829.5,5.01,000.00,030.1,025.3,000.0,038.5,031.7,26.7,0000.0,0007.75,0019.83,0006.28
2023-06-28 10:49:00,SystemResetWarning,0829.5,5.01,000.00,030.1,025.1,000.0,038.4,031.4,27.1,0000.0,0007.67,0019.53,0006.27
2023-06-28 10:50:00,SystemResetWarning,0829.5,4.98,000.00,029.9,025.4,000.0,038.4,031.1,27.9,0000.0,0007.68,0020.16,0006.30
2023-06-28 10:51:00,SystemResetWarning,0829.6,5.00,000.00,029.8,025.8,000.0,038.4,031.1,28.5,0002.9,0007.70,0020.08,0006.33
2023-06-28 10:52:00,SystemResetWarning,0829.6,5.00,000.00,029.8,026.3,000.0,038.4,031.1,29.6,0003.3,0007.67,0019.23,0006.34
2023-06-28 10:53:00,SystemResetWarning,0829.6,5.01,000.00,029.8,026.7,000.0,038.4,031.1,30.2,0003.6,0007.69,0019.29,0006.39
2023-06-28 10:54:00,SystemResetWarning,0829.6,4.98,000.00,029.8,027.0,000.0,038.4,031.2,29.3,0003.9,0007.67,0017.98,0006.41
2023-06-28 10:55:00,SystemResetWarning,0829.6,4.99,000.00,029.8,027.3,000.0,038.4,031.2,28.8,0003.6,0007.71,0017.84,0006.43
2023-06-28 10:56:00,SystemResetWarning,0829.6,5.02,000.00,029.8,027.5,000.0,038.4,031.2,28.8,0000.0,0007.74,0018.02,0006.48
2023-06-28 10:57:00,SystemResetWarning,0829.6,5.01,000.00,029.8,027.7,000.0,038.4,031.3,28.3,0000.0,0007.75,0017.71,0006.52
2023-06-28 10:58:00,SystemResetWarning,0829.6,4.99,000.00,029.8,027.9,000.0,038.4,031.3,28.0,0002.6,0007.75,0016.96,0006.58
2023-06-28 10:59:00,SystemResetWarning,0829.7,5.00,000.00,029.8,028.0,000.0,038.4,031.3,28.6,0003.0,0007.82,0016.94,0006.64
